Wind_Speed
9 8 8 7 7 7 7 4 2 4 5 5 6 9 12 13 14 15 16 16 17 17 17 17 17 17 16 15 12 12 12 11 11 10 9 8 6 6 5 4 3 4 4 4
11 11 10 9 8 8 7 6 4 4 5 5 6 7 8 11 13 14 14 15 16 16 16 16 16 16 15 14 13 12 11 11 10 10 10 9 8 7 6 6 5 5 5 6
14 13 12 11 10 9 8 8 7 5 6 7 8 10 10 9 10 13 14 14 15 16 15 15 15 15 14 13 13 13 12 11 11 11 11 10 9 8 8 7 7 6 6 7
16 16 15 13 12 10 9 8 9 8 7 6 9 12 11 10 9 11 13 13 14 15 14 14 14 14 13 13 13 13 12 11 11 11 11 11 10 9 8 9 8 8 8 8
18 17 17 16 14 12 11 10 9 8 7 7 9 12 13 11 10 10 11 12 12 14 14 13 13 13 13 13 13 13 12 12 11 11 12 11 10 10 10 10 9 8 9 9
20 18 17 17 14 13 13 11 10 7 8 11 10 10 13 12 10 10 9 9 10 11 12 13 12 12 13 13 13 13 13 13 12 12 13 12 12 11 11 11 11 10 10 10
21 19 18 15 14 14 13 11 9 9 11 14 12 10 12 14 13 11 11 10 9 10 11 11 12 12 12 13 13 13 13 13 13 13 14 13 13 12 12 12 12 11 12 11
18 19 18 17 17 16 15 12 12 12 12 13 12 11 13 12 13 12 12 10 9 10 10 11 11 11 12 12 13 13 14 13 14 14 15 14 13 13 12 13 13 13 13 13
18 17 18 18 17 17 15 15 14 15 15 15 13 14 14 12 11 12 12 10 9 9 9 10 11 12 12 12 12 12 13 13 14 14 15 15 14 14 13 13 13 13 13 13
22 20 18 19 19 18 19 15 15 17 15 15 14 15 15 12 11 12 12 12 10 10 9 10 11 12 12 13 13 13 13 13 14 15 15 15 15 15 15 15 15 14 14 14
26 24 19 20 20 19 19 18 18 17 17 14 16 17 18 11 10 11 13 12 12 10 10 10 11 12 12 13 13 13 13 13 14 15 15 16 16 16 16 16 16 16 16 16
27 25 23 20 20 20 19 19 19 19 17 15 16 19 18 15 14 13 13 13 13 12 12 12 12 13 13 13 13 13 12 13 14 15 15 16 16 17 17 17 17 17 17 17
29 28 26 21 19 21 21 21 20 18 18 17 17 19 21 18 15 15 15 16 15 14 14 14 14 14 14 14 14 14 14 14 15 16 16 16 17 17 18 18 18 18 18 18
30 30 28 22 19 20 20 19 20 20 19 18 19 20 21 20 17 16 16 17 16 15 15 15 15 15 15 15 15 16 17 16 17 17 17 18 18 19 19 20 20 20 19 19
31 30 30 28 23 21 21 20 20 21 22 21 21 22 22 21 21 18 17 17 17 17 17 17 16 16 17 17 16 17 18 18 18 18 18 19 19 20 21 21 22 21 20 20
33 32 31 31 29 25 23 22 21 21 23 23 23 24 25 25 25 21 19 18 18 19 19 19 18 18 18 18 18 19 20 20 20 19 19 20 20 21 22 22 22 22 22 21
32 33 33 31 29 28 29 25 23 23 24 24 25 25 27 27 25 24 23 22 21 21 21 20 20 20 20 20 20 21 21 21 21 21 21 20 20 21 22 22 22 23 23 23
32 33 33 31 29 31 30 28 25 25 26 27 28 27 27 28 28 28 27 25 23 22 23 22 22 22 21 22 22 23 22 22 22 22 23 23 22 22 22 23 23 24 24 24
31 33 32 30 30 30 28 27 27 27 27 29 30 29 29 29 30 29 28 27 25 24 25 24 24 24 23 23 23 24 23 22 23 23 23 23 23 23 23 24 24 24 25 25
31 33 32 32 30 29 29 29 29 29 30 31 29 29 30 30 30 30 28 27 27 26 25 25 25 26 25 25 25 25 24 24 24 25 24 25 25 25 25 25 25 26 26 26
32 33 33 32 31 30 31 30 28 30 32 30 30 30 30 30 31 32 30 29 28 26 26 26 27 27 27 27 27 26 26 25 25 26 26 26 26 26 26 27 26 27 26 26
31 33 34 34 33 32 33 32 31 32 31 31 31 31 31 30 31 32 32 30 29 28 28 28 28 28 28 29 28 28 27 26 27 27 27 27 27 27 28 28 27 27 26 26
32 33 33 34 35 35 34 33 33 34 33 31 31 31 31 31 32 32 32 31 30 30 30 29 29 29 29 29 29 29 28 29 29 29 29 29 28 29 29 28 27 27 27 27
32 33 34 35 35 35 35 34 33 32 31 32 33 32 32 32 32 32 32 32 32 31 31 31 31 31 30 30 30 31 31 30 30 30 30 30 30 30 29 29 28 27 27 27
30 32 33 34 35 35 35 35 34 33 33 33 32 32 32 33 34 34 33 32 32 33 32 33 33 33 32 32 31 31 31 31 31 32 31 31 31 30 30 29 29 29 28 28
27 30 33 35 35 35 34 34 34 34 35 35 35 33 34 35 34 33 32 32 32 32 32 33 34 34 33 33 32 32 32 32 31 31 31 31 30 30 30 30 30 30 29 29
Wind_Direction
201 200 203 205 214 232 252 262 298 312 337 356 349 347 353 4 5 3 6 12 16 19 21 22 22 22 24 25 28 27 27 27 28 27 24 22 20 15 6 353 333 326 327 321
209 214 214 209 220 237 247 265 269 293 311 319 322 327 342 351 354 357 359 4 10 13 16 18 18 19 21 23 22 19 21 23 23 24 23 21 16 10 4 353 332 318 316 316
214 215 223 216 223 238 243 258 259 260 292 313 315 322 323 343 351 354 355 360 2 8 12 14 15 15 16 19 18 19 21 21 21 21 20 16 13 9 3 353 342 330 321 313
222 221 223 218 221 220 239 244 254 259 274 292 306 308 322 324 339 349 348 355 358 1 8 11 12 12 14 16 16 19 21 20 20 20 16 12 8 4 355 349 342 331 325 320
226 227 223 224 222 212 223 232 241 251 262 270 289 298 309 316 328 337 344 352 354 354 1 9 11 12 14 16 18 18 18 17 17 15 12 7 1 356 351 352 346 334 325 319
225 226 223 228 229 218 219 234 244 241 249 261 265 278 297 305 310 321 324 341 348 351 354 3 8 11 12 15 17 16 15 13 12 10 7 2 356 353 350 347 344 337 328 320
225 227 227 225 226 226 227 230 244 252 254 256 253 259 275 295 308 313 318 326 334 341 348 356 1 4 4 6 9 10 9 8 7 6 2 359 355 351 349 345 341 338 334 326
234 238 237 229 226 226 230 227 238 245 257 267 260 248 262 281 291 298 306 313 321 331 341 349 351 354 356 358 -0 2 2 3 2 1 0 359 356 352 349 343 339 337 333 328
224 240 244 238 228 223 226 231 234 248 261 267 268 262 262 275 287 292 301 309 313 322 331 339 341 345 349 350 351 353 357 358 357 356 356 357 356 353 350 346 342 340 337 333
216 223 227 235 237 230 226 226 234 238 249 265 272 269 263 267 277 286 293 295 300 310 320 329 336 341 344 345 345 351 353 353 351 350 349 349 349 347 346 344 342 339 338 335
218 220 221 231 235 229 232 230 232 237 238 254 272 276 276 265 265 275 280 284 291 300 311 319 326 331 335 337 339 342 344 345 346 346 344 343 343 343 341 340 338 337 335 334
220 221 226 229 239 235 230 233 236 240 240 242 261 277 283 271 267 270 271 275 290 299 304 310 314 319 324 326 329 332 333 335 337 339 339 339 338 339 339 338 335 333 332 331
220 220 223 227 232 242 236 230 231 237 247 248 257 272 278 277 273 270 272 279 283 292 299 304 308 310 311 315 319 322 325 328 331 331 331 332 333 333 333 331 331 330 328 326
224 224 219 221 228 239 247 239 234 233 240 249 251 261 269 273 271 266 265 272 278 288 293 298 301 303 306 309 311 315 317 321 324 324 324 326 328 329 328 327 326 326 326 324
227 226 223 220 222 228 237 241 237 236 235 241 248 256 266 272 271 263 264 268 277 283 287 290 293 296 299 303 308 312 314 315 317 319 322 322 323 323 324 324 323 321 321 320
228 228 228 226 224 228 233 238 240 237 238 242 245 250 256 261 263 264 264 267 275 281 284 286 287 290 293 296 300 305 307 308 311 313 315 315 318 320 321 321 321 321 320 319
232 231 230 230 230 234 237 234 237 241 243 245 245 249 254 257 260 263 269 271 272 276 281 284 285 286 288 292 296 299 301 305 307 308 313 312 314 317 321 322 322 322 320 319
232 233 234 233 232 235 239 239 238 243 244 245 245 249 257 262 264 266 270 269 269 274 279 281 282 282 284 287 292 295 298 301 304 308 311 311 310 312 315 317 319 319 319 319
236 235 233 232 235 239 239 239 240 243 247 249 249 250 253 258 263 265 268 269 268 271 274 277 279 280 282 285 287 291 295 297 300 303 305 308 310 311 313 314 314 316 317 317
234 238 235 233 234 237 239 239 241 243 247 248 250 252 253 255 260 263 265 268 268 269 271 273 276 279 280 282 285 287 291 294 297 300 302 304 306 309 310 312 312 313 314 314
234 236 236 234 235 239 242 239 240 241 245 250 251 251 252 254 258 263 264 264 265 267 270 272 275 278 281 283 286 287 289 291 294 297 299 301 303 306 308 310 311 312 312 313
236 239 240 236 235 238 243 243 241 242 248 251 252 253 255 257 259 262 265 266 267 270 270 271 273 276 280 283 284 286 289 290 291 293 295 297 299 302 304 305 306 308 310 311
236 235 238 238 237 239 243 245 245 245 247 249 251 255 256 257 258 260 261 263 265 268 269 270 271 273 278 282 283 284 286 288 289 290 292 294 295 298 301 303 303 305 307 310
238 236 236 237 239 241 243 245 246 250 252 252 253 254 256 257 258 259 260 261 263 266 267 269 271 273 276 279 282 284 285 286 287 288 290 291 292 294 297 299 300 302 304 307
236 234 237 238 239 241 242 243 246 250 252 253 255 256 256 257 258 258 257 260 264 266 266 268 270 273 274 277 280 283 284 285 287 288 288 288 290 291 294 296 297 298 300 302
236 239 238 239 240 241 242 242 246 250 252 253 255 256 257 257 258 259 260 261 264 266 267 268 270 272 273 275 277 279 281 283 286 287 288 288 289 292 293 294 294 295 297 299
Height
5924 5928 5929 5932 5934 5935 5934 5934 5934 5935 5934 5933 5932 5929 5926 5924 5922 5920 5917 5915 5912 5910 5908 5905 5903 5901 5899 5897 5896 5894 5893 5891 5890 5889 5888 5888 5887 5886 5886 5885 5885 5885 5885 5884
5924 5927 5929 5930 5932 5933 5934 5934 5934 5934 5934 5933 5931 5930 5927 5925 5924 5921 5919 5916 5914 5912 5909 5907 5905 5903 5901 5899 5898 5896 5894 5893 5892 5891 5890 5889 5888 5887 5886 5886 5885 5885 5884 5884
5922 5926 5927 5928 5930 5933 5934 5935 5934 5934 5933 5932 5931 5930 5927 5925 5924 5921 5920 5918 5915 5913 5911 5909 5907 5905 5903 5901 5899 5898 5896 5894 5893 5892 5891 5890 5889 5888 5887 5886 5885 5884 5883 5883
5920 5922 5924 5926 5929 5931 5933 5934 5933 5933 5933 5933 5932 5930 5927 5925 5922 5922 5920 5919 5916 5914 5912 5910 5908 5906 5904 5902 5901 5899 5897 5896 5894 5893 5891 5890 5889 5888 5887 5886 5884 5884 5883 5882
5917 5919 5921 5923 5926 5927 5930 5931 5931 5932 5932 5932 5932 5930 5927 5923 5922 5921 5920 5919 5917 5915 5913 5911 5909 5907 5906 5904 5902 5900 5899 5897 5895 5894 5892 5891 5889 5888 5886 5885 5884 5883 5882 5881
5914 5916 5918 5920 5922 5924 5927 5928 5929 5929 5931 5931 5931 5931 5927 5923 5921 5921 5919 5919 5918 5916 5914 5912 5910 5908 5907 5905 5903 5901 5900 5898 5896 5894 5893 5891 5889 5888 5886 5885 5883 5882 5881 5880
5910 5912 5914 5916 5920 5922 5924 5926 5928 5929 5929 5928 5928 5928 5926 5924 5922 5921 5919 5918 5918 5916 5914 5913 5911 5909 5908 5906 5904 5902 5901 5899 5897 5895 5893 5891 5889 5887 5886 5884 5882 5881 5880 5879
5908 5910 5912 5913 5917 5920 5921 5924 5927 5927 5927 5925 5924 5924 5924 5923 5922 5920 5918 5918 5917 5916 5914 5913 5911 5910 5908 5906 5905 5903 5901 5899 5897 5895 5893 5891 5889 5887 5885 5884 5882 5880 5879 5877
5906 5909 5910 5911 5913 5916 5918 5920 5924 5925 5924 5923 5922 5921 5919 5919 5919 5919 5918 5917 5916 5915 5914 5913 5911 5909 5908 5906 5905 5903 5901 5899 5897 5895 5893 5891 5889 5887 5885 5883 5881 5879 5877 5876
5901 5904 5907 5908 5910 5912 5914 5917 5920 5921 5921 5921 5919 5918 5915 5916 5916 5917 5916 5915 5914 5913 5913 5911 5910 5908 5907 5906 5904 5902 5901 5899 5897 5895 5893 5891 5888 5886 5884 5882 5880 5878 5876 5874
5896 5899 5902 5904 5905 5908 5911 5913 5914 5916 5917 5919 5918 5918 5913 5911 5913 5913 5913 5912 5912 5911 5911 5910 5909 5908 5906 5905 5903 5901 5900 5898 5896 5894 5892 5890 5887 5885 5883 5881 5879 5877 5874 5872
5890 5894 5896 5899 5902 5903 5906 5909 5911 5913 5913 5915 5915 5917 5911 5910 5910 5910 5909 5909 5909 5909 5909 5908 5907 5906 5905 5904 5902 5900 5898 5896 5895 5893 5891 5889 5886 5884 5882 5879 5877 5875 5873 5870
5884 5888 5891 5895 5899 5900 5900 5903 5906 5909 5911 5912 5913 5914 5908 5907 5906 5906 5907 5907 5907 5907 5906 5906 5905 5904 5903 5901 5900 5898 5896 5894 5893 5891 5889 5887 5885 5882 5880 5877 5875 5873 5870 5868
5878 5882 5886 5891 5894 5896 5896 5898 5901 5904 5907 5908 5908 5908 5904 5903 5902 5902 5904 5904 5903 5904 5904 5903 5903 5902 5900 5898 5897 5896 5894 5893 5891 5889 5887 5885 5882 5880 5877 5875 5873 5870 5868 5865
5871 5875 5879 5883 5887 5890 5892 5894 5896 5898 5901 5903 5903 5903 5902 5900 5898 5897 5899 5900 5901 5901 5901 5900 5900 5899 5897 5896 5895 5893 5892 5890 5889 5886 5884 5882 5880 5877 5875 5872 5870 5867 5864 5862
5864 5869 5872 5876 5881 5883 5885 5888 5891 5893 5895 5897 5897 5898 5897 5896 5893 5892 5895 5896 5897 5897 5897 5897 5896 5895 5894 5893 5892 5890 5889 5887 5885 5883 5881 5879 5876 5874 5872 5869 5866 5864 5861 5858
5858 5862 5865 5870 5874 5876 5879 5882 5884 5886 5889 5890 5891 5892 5890 5889 5888 5889 5891 5892 5892 5893 5893 5892 5892 5891 5890 5889 5888 5887 5885 5884 5882 5879 5877 5874 5872 5870 5868 5865 5863 5860 5857 5854
5851 5854 5859 5863 5867 5869 5875 5876 5878 5881 5882 5883 5883 5885 5885 5884 5884 5885 5886 5887 5887 5888 5888 5888 5887 5886 5886 5885 5884 5883 5881 5880 5878 5876 5874 5871 5869 5867 5864 5861 5859 5856 5853 5850
5844 5847 5851 5856 5859 5862 5867 5869 5871 5873 5874 5875 5876 5879 5880 5880 5880 5880 5880 5880 5880 5882 5883 5883 5882 5882 5881 5880 5879 5878 5877 5875 5874 5872 5870 5867 5865 5862 5860 5857 5855 5852 5849 5846
5837 5839 5844 5848 5852 5855 5859 5861 5863 5867 5866 5867 5869 5871 5872 5873 5874 5873 5874 5875 5876 5876 5876 5877 5877 5876 5876 5875 5874 5873 5872 5870 5869 5867 5865 5863 5860 5857 5855 5852 5850 5847 5844 5840
5828 5831 5836 5840 5844 5847 5850 5852 5855 5858 5858 5860 5861 5863 5864 5866 5867 5867 5867 5867 5867 5868 5869 5870 5871 5870 5870 5869 5868 5866 5866 5865 5863 5861 5859 5857 5855 5852 5850 5847 5844 5841 5838 5835
5821 5825 5828 5832 5836 5841 5841 5844 5846 5848 5849 5851 5853 5854 5857 5858 5859 5859 5860 5861 5860 5861 5862 5863 5864 5864 5863 5862 5861 5860 5859 5858 5857 5855 5853 5851 5849 5847 5844 5842 5839 5836 5833 5830
5813 5817 5820 5824 5828 5830 5833 5836 5837 5839 5841 5843 5845 5847 5849 5850 5851 5851 5852 5854 5854 5855 5855 5856 5856 5856 5856 5855 5854 5853 5852 5851 5849 5848 5846 5844 5842 5840 5838 5835 5832 5830 5828 5825
5805 5809 5812 5815 5818 5822 5825 5827 5829 5831 5833 5835 5837 5839 5841 5842 5843 5843 5845 5846 5847 5847 5848 5848 5848 5848 5848 5848 5847 5846 5845 5843 5842 5841 5839 5837 5835 5833 5831 5829 5827 5824 5822 5819
5796 5800 5803 5806 5810 5813 5816 5819 5821 5824 5826 5827 5829 5831 5832 5833 5834 5835 5836 5837 5838 5839 5840 5840 5840 5840 5840 5839 5839 5838 5837 5835 5834 5833 5831 5829 5828 5826 5824 5822 5820 5818 5815 5813
5787 5790 5794 5797 5801 5804 5807 5809 5812 5814 5816 5818 5821 5822 5823 5823 5825 5826 5827 5829 5830 5831 5831 5832 5832 5832 5831 5831 5830 5829 5828 5827 5826 5824 5823 5822 5820 5819 5817 5815 5812 5810 5808 5806